sat.trackr.live / text

‹ back to catalog

STARLINK-4282

NORAD 53019 · 2022-076AK

PAYLOAD ACTIVE UNKNOWN

§ Identity

Operator
Country
US
Launch date
2022-07-07
Launch site
AFETR
Launch vehicle
Mass (kg)
RCS (m²)

Purposes: comms

External: N2YO · Heavens-Above · Gunter

§ Orbital elements

Epoch: 2026-09-19T01:31:09.324768Z

Period
93.90 min
Inclination
53.1592°
Eccentricity
0.0001112
Mean motion
15.33542868 rev/d
Perigee alt
464.5 km
Apogee alt
466.0 km
Semi-major
6,843.4 km
B*
3.6256e-5
RAAN
290.1450°
Arg perigee
85.0364°
Mean anomaly
275.0765°
Rev number
23,225

§ Raw data

STARLINK-42821 53019U 22076AK  26262.06330237  .00000820  00000+0  36256-4 0  99922 53019  53.1592 290.1450 0001112  85.0364 275.0765 15.33542868232258

JSON: /api/v1/satellites/53019 · /tle

For live sub-satellite position, see the globe view (requires WebGL).

§ Visibility from observer

Set your observer location to see the next 7 days of passes ≥ 10°. The values pass through the URL so the page stays shareable.

No JS? Fill the form by hand. The geolocation button needs JavaScript.